Regional Weather Roundup
Issued by NWS

Home | Current Version | Previous Version | Text Only | Print | Product List | Glossary On
Versions: 1 2 3 4 5 6 7 8 9 10 11 12 13 14 15 16 17 18 19 20 21 22 23 24 25 26 27 28 29 30 31 32 33 34 35 36 37 38 39 40 41 42 43 44 45 46 47 48 49 50
000
ASUS43 KMKX 230107
RWRWI

WISCONSIN REGIONAL WEATHER ROUNDUP
NATIONAL WEATHER SERVICE MILWAUKEE/SULLIVAN WI
800 PM CDT FRI MAY 22 2015

NOTE: "FAIR" INDICATES FEW OR NO CLOUDS BELOW 12,000 FEET WITH NO
SIGNIFICANT WEATHER AND/OR OBSTRUCTIONS TO VISIBILITY.

WIZ001-002-006>008-014>016-023>028-230200-
NORTHWEST WISCONSIN

CITY           SKY/WX    TMP DP  RH WIND       PRES   REMARKS
SUPERIOR ARPT  CLEAR     46  35  66 NE5       30.17S
ASHLAND        CLEAR     66  35  31 S3        30.16F
HAYWARD        CLEAR     69  30  23 SW5       30.18S
SIREN          CLEAR     69  34  27 SW5       30.19R
CUMBERLAND     CLEAR     68  32  26 SE3       30.20S
RICE LAKE      CLEAR     69  33  26 S5        30.21S
CHETEK         CLEAR     67  36  32 MISG      30.20S
LADYSMITH      CLEAR     66  38  35 S6        30.21S
EAU CLAIRE     PTCLDY    69  32  25 CALM      30.19S
MENOMONIE      PTCLDY    68  37  31 S5        30.20S
NEW RICHMOND   PTCLDY    69  31  24 CALM      30.20R
OSCEOLA        CLEAR     69  37  31 CALM      30.21S
$$

WIZ003>005-009-010-017-018-230200-
NORTH CENTRAL WISCONSIN

CITY           SKY/WX    TMP DP  RH WIND       PRES   REMARKS
MANITOWISH WTR CLEAR     63  27  26 NE5       30.20F
ARBOR VITAE    CLEAR     64  25  23 NE3       30.20F
WOODRUFF       CLEAR     64  25  23 NE3       30.20F
RHINELANDER    CLEAR     64  27  24 CALM      30.21S
EAGLE RIVER    CLEAR     63  21  20 N6        30.21S
LAND O LAKES   CLEAR     63  19  18 N5        30.22S
PHILLIPS       CLEAR     65  32  28 CALM      30.19S
TOMAHAWK       CLEAR     65  27  23 CALM      30.20S
MEDFORD        CLEAR     65  33  30 SW3       30.21S
MERRILL        CLEAR     66  33  29 W3        30.20S
$$

WIZ029-030-035-036-043>047-230200-
CENTRAL WISCONSIN

CITY           SKY/WX    TMP DP  RH WIND       PRES   REMARKS
WAUSAU         CLEAR     64  35  34 SW7       30.19R
MOSINEE        CLEAR     61  37  41 SW6       30.22S
MARSHFIELD     PTCLDY    66  33  29 CALM      30.21R
STEVENS POINT  CLEAR     65  32  29 CALM      30.21S
WAUPACA        CLEAR     69  30  23 W5        30.21S
WAUTOMA        NOT AVBL
WISC RAPIDS    LGT RAIN  66  32  28 NE3       30.22R
CAMP DOUGLAS   NOT AVBL
$$

WIZ011>013-019>022-031-037>040-048>050-230200-
NORTHEAST WISCONSIN

CITY           SKY/WX    TMP DP  RH WIND       PRES   REMARKS
ANTIGO         CLEAR     64  32  30 NW3       30.20S
SHAWANO        CLEAR     69  32  25 W5        30.19S
OCONTO         CLEAR     55  33  42 SE8       30.22F
STURGEON BAY   CLEAR     48  21  34 SE8       30.27S
GREEN BAY      CLEAR     57  31  37 S10       30.23R
MANITOWOC      NOT AVBL
APPLETON       PTCLDY    61  32  33 S12       30.23R
CLINTONVILLE   CLEAR     66  32  28 W3        30.20S
OSHKOSH        PTCLDY    59  34  39 SE10      30.22R
$$

WIZ032>034-041-042-053>061-230200-
SOUTHWEST WISCONSIN

CITY           SKY/WX    TMP DP  RH WIND       PRES   REMARKS
LA CROSSE      CLOUDY    71  38  29 CALM      30.19R
SPARTA         CLOUDY    68  36  30 CALM      30.21R
VIROQUA        CLOUDY    68  31  25 CALM      30.21S
BOSCOBEL       CLOUDY    67  45  45 CALM      30.20R
PRAIRIE DU CHI CLOUDY    69  44  41 CALM      30.18S
PLATTEVILLE    CLOUDY    69  37  29 CALM      30.21S
$$

WIZ056-057-062-063-064-067-068-230200-
SOUTH CENTRAL WISCONSIN

CITY           SKY/WX    TMP DP  RH WIND       PRES   REMARKS
REEDSBURG      CLOUDY    67  40  37 CALM      30.20R
BARABOO/DELLS  CLOUDY    67  36  32 CALM      30.21S
LONE ROCK      NOT AVBL
MINERAL POINT  CLOUDY    68  34  28 SW3       30.21S
MADISON        CLOUDY    65  41  41 CALM      30.21S
MIDDLETON      CLOUDY    69  32  25 E3        30.21S
WATERTOWN      MOCLDY    62  37  38 SE10      30.23R
MONROE         CLOUDY    68  41  37 S3        30.22R
JANESVILLE     CLEAR     66  36  32 E16       30.22R
$$

WIZ051-052-058>065-066-070>072-230200-
SOUTHEAST WISCONSIN

CITY           SKY/WX    TMP DP  RH WIND       PRES   REMARKS
MILWAUKEE      MOCLDY    48  27  44 SE8       30.28S
WAUKESHA       MOCLDY    54  27  35 E8        30.28R
MILWAUKEE/TIMM CLEAR     52  18  25 SE6       30.29R
RACINE         MOCLDY    48  30  49 E6        30.29S
BURLINGTON     MOCLDY    54  29  38 E6        30.26R
KENOSHA        MOCLDY    50  27  40 E8        30.28R
FOND DU LAC    PTCLDY    56  30  37 SE9       30.24R
SHEBOYGAN      PTCLDY    50  25  37 S7        30.26S
WEST BEND      MOCLDY    52  21  30 SE6       30.27R
JUNEAU         MOCLDY    62  37  40 SE13      30.24R
$$

LSZ147-162-230200-
LAKE SUPERIOR

STATION/POSITION TIME  TEMP    WIND        PRES    WAVE
                       AIR SEA DIR/SP/G            HT/PER
                 (UTC) (F)     (DEG/KT/KT) (MB)    (FT/S)
W MID LAKE BUOY  2350   41 37  120/  8/ 10   N/A     0
DEVILS ISLAND    0000   45      70/  5/  6   N/A
PORT WING        0040   43      20/  6/  6   N/A
SAXON HARBOR     0000   66        CALM       N/A
$$

LMZ867-665-643>646-230200-
LAKE MICHIGAN

STATION/POSITION TIME  TEMP    WIND        PRES    WAVE
                       AIR SEA DIR/SP/G            HT/PER
                 (UTC) (F)     (DEG/KT/KT) (MB)    (FT/S)
CHAMBERS ISLAND  0000   54     140/  4/ 11   N/A
N MID LAKE BUOY  2350   41 36  180/  6/  8   N/A     0
NORTHPORT PIER   0000   49     160/  7/ 11   N/A
SISTER BAY       0002   51     140/ 11/ 14   N/A
KEWAUNEE LAKESHO 0000   47     170/ 10/ 11   N/A
SHEBOYGAN LAKESH 0000          160/  6/  7   N/A
PORT WASHINGTON  0000   49     170/  2/  4   N/A
ATWATER BUOY     0000   46 45  150/  2/  4   N/A
MILWAUKEE LAKESH 0015   46     180/  1/  2   N/A
S MID LAKE BUOY  2350   42 38   70/  6/  6   N/A     0
KENOSHA   LAKESH 0000   50     130/  4/  6   N/A
$$

TC  - TEMPERATURE IN CELSIUS
VSB - VISIBILITY IN STATUTE MILES
WCI - WIND CHILL INDEX
HX  - HEAT INDEX



USA.gov is the U.S. government's official web portal to all federal, state and local government web resources and services.